#datetime,building,power
2023-09-08T00:00:00,rvs,24.05
2023-09-08T00:01:00,rvs,24.47
2023-09-08T00:02:00,rvs,23.66
2023-09-08T00:03:00,rvs,24.35
2023-09-08T00:04:00,rvs,24.71
2023-09-08T00:05:00,rvs,20.90
2023-09-08T00:06:00,rvs,21.50
2023-09-08T00:07:00,rvs,20.53
2023-09-08T00:08:00,rvs,24.09
2023-09-08T00:09:00,rvs,21.94
2023-09-08T00:10:00,rvs,23.67
2023-09-08T00:11:00,rvs,23.07
2023-09-08T00:12:00,rvs,23.11
2023-09-08T00:13:00,rvs,23.68
2023-09-08T00:14:00,rvs,21.88
2023-09-08T00:15:00,rvs,23.08
2023-09-08T00:16:00,rvs,23.64
2023-09-08T00:17:00,rvs,22.37
2023-09-08T00:18:00,rvs,24.54
2023-09-08T00:19:00,rvs,21.62
2023-09-08T00:20:00,rvs,22.51
2023-09-08T00:21:00,rvs,17.15
2023-09-08T00:22:00,rvs,18.06
2023-09-08T00:23:00,rvs,20.07
2023-09-08T00:24:00,rvs,19.49
2023-09-08T00:25:00,rvs,19.28
2023-09-08T00:26:00,rvs,20.21
2023-09-08T00:27:00,rvs,17.00
2023-09-08T00:28:00,rvs,16.20
2023-09-08T00:29:00,rvs,16.34
2023-09-08T00:30:00,rvs,16.54
2023-09-08T00:31:00,rvs,18.69
2023-09-08T00:32:00,rvs,17.78
2023-09-08T00:33:00,rvs,18.33
2023-09-08T00:34:00,rvs,18.27
2023-09-08T00:35:00,rvs,19.31
2023-09-08T00:36:00,rvs,20.03
2023-09-08T00:37:00,rvs,17.30
2023-09-08T00:38:00,rvs,14.79
2023-09-08T00:39:00,rvs,14.85
2023-09-08T00:40:00,rvs,15.70
2023-09-08T00:41:00,rvs,15.62
2023-09-08T00:42:00,rvs,15.23
2023-09-08T00:43:00,rvs,15.58
2023-09-08T00:44:00,rvs,15.37
2023-09-08T00:45:00,rvs,15.41
2023-09-08T00:46:00,rvs,15.31
2023-09-08T00:47:00,rvs,11.94
2023-09-08T00:48:00,rvs,12.08
2023-09-08T00:49:00,rvs,14.23
2023-09-08T00:50:00,rvs,14.30
2023-09-08T00:51:00,rvs,14.55
2023-09-08T00:52:00,rvs,15.16
2023-09-08T00:53:00,rvs,15.63
2023-09-08T00:54:00,rvs,15.31
2023-09-08T00:55:00,rvs,15.65
2023-09-08T00:56:00,rvs,15.91
2023-09-08T00:57:00,rvs,16.11
2023-09-08T00:58:00,rvs,16.16
2023-09-08T00:59:00,rvs,16.26
2023-09-08T01:00:00,rvs,16.47
2023-09-08T01:01:00,rvs,16.51
2023-09-08T01:02:00,rvs,16.20
2023-09-08T01:03:00,rvs,11.19
2023-09-08T01:04:00,rvs,11.13
2023-09-08T01:05:00,rvs,11.57
2023-09-08T01:06:00,rvs,11.53
2023-09-08T01:07:00,rvs,10.91
2023-09-08T01:08:00,rvs,10.99
2023-09-08T01:09:00,rvs,10.91
2023-09-08T01:10:00,rvs,13.28
2023-09-08T01:11:00,rvs,13.99
2023-09-08T01:12:00,rvs,14.12
2023-09-08T01:13:00,rvs,27.43
2023-09-08T01:14:00,rvs,28.10
2023-09-08T01:15:00,rvs,29.31
2023-09-08T01:16:00,rvs,33.21
2023-09-08T01:17:00,rvs,34.04
2023-09-08T01:18:00,rvs,22.44
2023-09-08T01:19:00,rvs,24.94
2023-09-08T01:20:00,rvs,25.45
2023-09-08T01:21:00,rvs,25.98
2023-09-08T01:22:00,rvs,28.65
2023-09-08T01:23:00,rvs,23.80
2023-09-08T01:24:00,rvs,23.09
2023-09-08T01:25:00,rvs,24.77
2023-09-08T01:26:00,rvs,25.15
2023-09-08T01:27:00,rvs,24.09
2023-09-08T01:28:00,rvs,24.48
2023-09-08T01:29:00,rvs,21.83
2023-09-08T01:30:00,rvs,21.06
2023-09-08T01:31:00,rvs,15.51
2023-09-08T01:32:00,rvs,17.02
2023-09-08T01:33:00,rvs,17.13
2023-09-08T01:34:00,rvs,17.06
2023-09-08T01:35:00,rvs,19.20
2023-09-08T01:36:00,rvs,20.65
2023-09-08T01:37:00,rvs,23.37
2023-09-08T01:38:00,rvs,23.87
2023-09-08T01:39:00,rvs,24.11
2023-09-08T01:40:00,rvs,24.31
2023-09-08T01:41:00,rvs,24.52
2023-09-08T01:42:00,rvs,15.60
2023-09-08T01:43:00,rvs,11.68
2023-09-08T01:44:00,rvs,11.61
2023-09-08T01:45:00,rvs,10.98
2023-09-08T01:46:00,rvs,11.06
2023-09-08T01:47:00,rvs,13.57
2023-09-08T01:48:00,rvs,13.25
2023-09-08T01:49:00,rvs,13.44
2023-09-08T01:50:00,rvs,13.67
2023-09-08T01:51:00,rvs,16.52
2023-09-08T01:52:00,rvs,19.83
2023-09-08T01:53:00,rvs,20.95
2023-09-08T01:54:00,rvs,21.30
2023-09-08T01:55:00,rvs,22.92
2023-09-08T01:56:00,rvs,23.65
2023-09-08T01:57:00,rvs,23.47
2023-09-08T01:58:00,rvs,23.37
2023-09-08T01:59:00,rvs,23.95
2023-09-08T02:00:00,rvs,24.71
2023-09-08T02:01:00,rvs,23.96
2023-09-08T02:02:00,rvs,23.97
2023-09-08T02:03:00,rvs,24.34
2023-09-08T02:04:00,rvs,24.61
2023-09-08T02:05:00,rvs,23.18
2023-09-08T02:06:00,rvs,22.55
2023-09-08T02:07:00,rvs,21.26
2023-09-08T02:08:00,rvs,14.72
2023-09-08T02:09:00,rvs,11.00
2023-09-08T02:10:00,rvs,10.94
2023-09-08T02:11:00,rvs,11.34
2023-09-08T02:12:00,rvs,11.28
2023-09-08T02:13:00,rvs,11.22
2023-09-08T02:14:00,rvs,11.22
2023-09-08T02:15:00,rvs,11.31
2023-09-08T02:16:00,rvs,11.25
2023-09-08T02:17:00,rvs,11.21
2023-09-08T02:18:00,rvs,11.13
2023-09-08T02:19:00,rvs,11.15
2023-09-08T02:20:00,rvs,11.01
2023-09-08T02:21:00,rvs,11.07
2023-09-08T02:22:00,rvs,11.08
2023-09-08T02:23:00,rvs,10.99
2023-09-08T02:24:00,rvs,11.04
2023-09-08T02:25:00,rvs,11.17
2023-09-08T02:26:00,rvs,11.08
2023-09-08T02:27:00,rvs,11.07
2023-09-08T02:28:00,rvs,11.08
2023-09-08T02:29:00,rvs,11.09
2023-09-08T02:30:00,rvs,11.33
2023-09-08T02:31:00,rvs,10.96
2023-09-08T02:32:00,rvs,11.01
2023-09-08T02:33:00,rvs,11.07
2023-09-08T02:34:00,rvs,10.99
2023-09-08T02:35:00,rvs,11.50
2023-09-08T02:36:00,rvs,11.72
2023-09-08T02:37:00,rvs,13.83
2023-09-08T02:38:00,rvs,13.79
2023-09-08T02:39:00,rvs,14.00
2023-09-08T02:40:00,rvs,15.00
2023-09-08T02:41:00,rvs,15.77
2023-09-08T02:42:00,rvs,16.14
2023-09-08T02:43:00,rvs,16.30
2023-09-08T02:44:00,rvs,16.28
2023-09-08T02:45:00,rvs,16.14
2023-09-08T02:46:00,rvs,16.06
2023-09-08T02:47:00,rvs,16.09
2023-09-08T02:48:00,rvs,21.21
2023-09-08T02:49:00,rvs,17.15
2023-09-08T02:50:00,rvs,17.75
2023-09-08T02:51:00,rvs,18.13
2023-09-08T02:52:00,rvs,22.32
2023-09-08T02:53:00,rvs,22.98
2023-09-08T02:54:00,rvs,24.23
2023-09-08T02:55:00,rvs,23.83
2023-09-08T02:56:00,rvs,25.22
2023-09-08T02:57:00,rvs,22.86
2023-09-08T02:58:00,rvs,22.89
2023-09-08T02:59:00,rvs,22.78
2023-09-08T03:00:00,rvs,22.43
2023-09-08T03:01:00,rvs,22.34
2023-09-08T03:02:00,rvs,16.81
2023-09-08T03:03:00,rvs,16.48
2023-09-08T03:04:00,rvs,16.32
2023-09-08T03:05:00,rvs,14.83
2023-09-08T03:06:00,rvs,15.37
2023-09-08T03:07:00,rvs,15.59
2023-09-08T03:08:00,rvs,16.02
2023-09-08T03:09:00,rvs,16.71
2023-09-08T03:10:00,rvs,12.00
2023-09-08T03:11:00,rvs,11.54
2023-09-08T03:12:00,rvs,13.78
2023-09-08T03:13:00,rvs,13.52
2023-09-08T03:14:00,rvs,13.69
2023-09-08T03:15:00,rvs,13.91
2023-09-08T03:16:00,rvs,14.56
2023-09-08T03:17:00,rvs,14.98
2023-09-08T03:18:00,rvs,15.18
2023-09-08T03:19:00,rvs,14.30
2023-09-08T03:20:00,rvs,14.29
2023-09-08T03:21:00,rvs,15.33
2023-09-08T03:22:00,rvs,14.43
2023-09-08T03:23:00,rvs,14.36
2023-09-08T03:24:00,rvs,14.42
2023-09-08T03:25:00,rvs,14.48
2023-09-08T03:26:00,rvs,10.88
2023-09-08T03:27:00,rvs,10.91
2023-09-08T03:28:00,rvs,10.90
2023-09-08T03:29:00,rvs,10.83
2023-09-08T03:30:00,rvs,10.92
2023-09-08T03:31:00,rvs,10.94
2023-09-08T03:32:00,rvs,13.10
2023-09-08T03:33:00,rvs,13.45
2023-09-08T03:34:00,rvs,13.56
2023-09-08T03:35:00,rvs,16.45
2023-09-08T03:36:00,rvs,17.67
2023-09-08T03:37:00,rvs,18.36
2023-09-08T03:38:00,rvs,18.67
2023-09-08T03:39:00,rvs,22.04
2023-09-08T03:40:00,rvs,22.60
2023-09-08T03:41:00,rvs,18.67
2023-09-08T03:42:00,rvs,19.41
2023-09-08T03:43:00,rvs,20.06
2023-09-08T03:44:00,rvs,20.04
2023-09-08T03:45:00,rvs,20.16
2023-09-08T03:46:00,rvs,19.47
2023-09-08T03:47:00,rvs,19.84
2023-09-08T03:48:00,rvs,19.19
2023-09-08T03:49:00,rvs,10.79
2023-09-08T03:50:00,rvs,10.87
2023-09-08T03:51:00,rvs,10.85
2023-09-08T03:52:00,rvs,11.87
2023-09-08T03:53:00,rvs,11.97
2023-09-08T03:54:00,rvs,12.01
2023-09-08T03:55:00,rvs,11.94
2023-09-08T03:56:00,rvs,12.05
2023-09-08T03:57:00,rvs,11.25
2023-09-08T03:58:00,rvs,11.38
2023-09-08T03:59:00,rvs,11.30
2023-09-08T04:00:00,rvs,11.29
2023-09-08T04:01:00,rvs,11.19
2023-09-08T04:02:00,rvs,13.77
2023-09-08T04:03:00,rvs,27.41
2023-09-08T04:04:00,rvs,27.32
2023-09-08T04:05:00,rvs,27.28
2023-09-08T04:06:00,rvs,27.03
2023-09-08T04:07:00,rvs,14.72
2023-09-08T04:08:00,rvs,13.75
2023-09-08T04:09:00,rvs,10.94
2023-09-08T04:10:00,rvs,10.98
2023-09-08T04:11:00,rvs,11.08
2023-09-08T04:12:00,rvs,11.80
2023-09-08T04:13:00,rvs,11.75
2023-09-08T04:14:00,rvs,11.74
2023-09-08T04:15:00,rvs,13.90
2023-09-08T04:16:00,rvs,16.17
2023-09-08T04:17:00,rvs,15.83
2023-09-08T04:18:00,rvs,16.18
2023-09-08T04:19:00,rvs,16.96
2023-09-08T04:20:00,rvs,17.65
2023-09-08T04:21:00,rvs,18.09
2023-09-08T04:22:00,rvs,18.81
2023-09-08T04:23:00,rvs,19.26
2023-09-08T04:24:00,rvs,19.78
2023-09-08T04:25:00,rvs,21.04
2023-09-08T04:26:00,rvs,20.94
2023-09-08T04:27:00,rvs,20.72
2023-09-08T04:28:00,rvs,20.77
2023-09-08T04:29:00,rvs,20.70
2023-09-08T04:30:00,rvs,15.94
2023-09-08T04:31:00,rvs,17.58
2023-09-08T04:32:00,rvs,17.59
2023-09-08T04:33:00,rvs,17.80
2023-09-08T04:34:00,rvs,13.33
2023-09-08T04:35:00,rvs,14.04
2023-09-08T04:36:00,rvs,14.72
2023-09-08T04:37:00,rvs,14.97
2023-09-08T04:38:00,rvs,14.68
2023-09-08T04:39:00,rvs,14.08
2023-09-08T04:40:00,rvs,14.30
2023-09-08T04:41:00,rvs,15.07
2023-09-08T04:42:00,rvs,14.92
2023-09-08T04:43:00,rvs,17.13
2023-09-08T04:44:00,rvs,17.80
2023-09-08T04:45:00,rvs,18.27
2023-09-08T04:46:00,rvs,20.78
2023-09-08T04:47:00,rvs,18.49
2023-09-08T04:48:00,rvs,18.18
2023-09-08T04:49:00,rvs,18.83
2023-09-08T04:50:00,rvs,19.93
2023-09-08T04:51:00,rvs,20.80
2023-09-08T04:52:00,rvs,10.94
2023-09-08T04:53:00,rvs,10.84
2023-09-08T04:54:00,rvs,10.76
2023-09-08T04:55:00,rvs,10.77
2023-09-08T04:56:00,rvs,10.79
2023-09-08T04:57:00,rvs,10.74
2023-09-08T04:58:00,rvs,10.73
2023-09-08T04:59:00,rvs,11.29
2023-09-08T05:00:00,rvs,13.19
2023-09-08T05:01:00,rvs,13.93
2023-09-08T05:02:00,rvs,14.28
2023-09-08T05:03:00,rvs,16.84
2023-09-08T05:04:00,rvs,18.33
2023-09-08T05:05:00,rvs,18.33
2023-09-08T05:06:00,rvs,18.76
2023-09-08T05:07:00,rvs,19.99
2023-09-08T05:08:00,rvs,19.33
2023-09-08T05:09:00,rvs,19.74
2023-09-08T05:10:00,rvs,20.13
2023-09-08T05:11:00,rvs,20.99
2023-09-08T05:12:00,rvs,20.59
2023-09-08T05:13:00,rvs,22.88
2023-09-08T05:14:00,rvs,19.61
2023-09-08T05:15:00,rvs,15.87
2023-09-08T05:16:00,rvs,17.38
2023-09-08T05:17:00,rvs,16.25
2023-09-08T05:18:00,rvs,15.94
2023-09-08T05:19:00,rvs,15.93
2023-09-08T05:20:00,rvs,15.74
2023-09-08T05:21:00,rvs,15.30
2023-09-08T05:22:00,rvs,15.09
2023-09-08T05:23:00,rvs,15.01
2023-09-08T05:24:00,rvs,15.02
2023-09-08T05:25:00,rvs,15.03
2023-09-08T05:26:00,rvs,15.30
2023-09-08T05:27:00,rvs,15.53
2023-09-08T05:28:00,rvs,15.71
2023-09-08T05:29:00,rvs,15.47
2023-09-08T05:30:00,rvs,15.52
2023-09-08T05:31:00,rvs,15.27
2023-09-08T05:32:00,rvs,15.10
2023-09-08T05:33:00,rvs,15.29
2023-09-08T05:34:00,rvs,15.32
2023-09-08T05:35:00,rvs,10.87
2023-09-08T05:36:00,rvs,10.86
2023-09-08T05:37:00,rvs,10.79
2023-09-08T05:38:00,rvs,10.72
2023-09-08T05:39:00,rvs,10.73
2023-09-08T05:40:00,rvs,10.72
2023-09-08T05:41:00,rvs,10.72
2023-09-08T05:42:00,rvs,13.05
2023-09-08T05:43:00,rvs,13.03
2023-09-08T05:44:00,rvs,13.14
2023-09-08T05:45:00,rvs,12.83
2023-09-08T05:46:00,rvs,13.56
2023-09-08T05:47:00,rvs,11.27
2023-09-08T05:48:00,rvs,11.52
2023-09-08T05:49:00,rvs,11.42
2023-09-08T05:50:00,rvs,10.85
2023-09-08T05:51:00,rvs,10.82
2023-09-08T05:52:00,rvs,13.38
2023-09-08T05:53:00,rvs,13.85
2023-09-08T05:54:00,rvs,14.65
2023-09-08T05:55:00,rvs,15.41
2023-09-08T05:56:00,rvs,15.44
2023-09-08T05:57:00,rvs,32.95
2023-09-08T05:58:00,rvs,15.28
2023-09-08T05:59:00,rvs,15.19
2023-09-08T06:00:00,rvs,15.12
2023-09-08T06:01:00,rvs,14.81
2023-09-08T06:02:00,rvs,14.98
2023-09-08T06:03:00,rvs,14.73
2023-09-08T06:04:00,rvs,16.63
2023-09-08T06:05:00,rvs,16.96
2023-09-08T06:06:00,rvs,17.06
2023-09-08T06:07:00,rvs,17.09
2023-09-08T06:08:00,rvs,18.00
2023-09-08T06:09:00,rvs,21.02
2023-09-08T06:10:00,rvs,22.26
2023-09-08T06:11:00,rvs,18.29
2023-09-08T06:12:00,rvs,17.77
2023-09-08T06:13:00,rvs,19.35
2023-09-08T06:14:00,rvs,20.49
2023-09-08T06:15:00,rvs,20.63
2023-09-08T06:16:00,rvs,20.27
2023-09-08T06:17:00,rvs,20.61
2023-09-08T06:18:00,rvs,23.37
2023-09-08T06:19:00,rvs,20.39
2023-09-08T06:20:00,rvs,20.89
2023-09-08T06:21:00,rvs,24.20
2023-09-08T06:22:00,rvs,23.59
2023-09-08T06:23:00,rvs,23.55
2023-09-08T06:24:00,rvs,23.95
2023-09-08T06:25:00,rvs,22.40
2023-09-08T06:26:00,rvs,22.25
2023-09-08T06:27:00,rvs,22.86
2023-09-08T06:28:00,rvs,24.86
2023-09-08T06:29:00,rvs,24.23
2023-09-08T06:30:00,rvs,23.74
2023-09-08T06:31:00,rvs,23.38
2023-09-08T06:32:00,rvs,23.33
2023-09-08T06:33:00,rvs,23.54
2023-09-08T06:34:00,rvs,23.24
2023-09-08T06:35:00,rvs,15.23
2023-09-08T06:36:00,rvs,15.22
2023-09-08T06:37:00,rvs,15.07
2023-09-08T06:38:00,rvs,14.97
2023-09-08T06:39:00,rvs,15.22
2023-09-08T06:40:00,rvs,15.18
2023-09-08T06:41:00,rvs,15.10
2023-09-08T06:42:00,rvs,15.26
2023-09-08T06:43:00,rvs,10.98
2023-09-08T06:44:00,rvs,11.12
2023-09-08T06:45:00,rvs,10.98
2023-09-08T06:46:00,rvs,10.99
2023-09-08T06:47:00,rvs,11.13
2023-09-08T06:48:00,rvs,10.95
2023-09-08T06:49:00,rvs,10.91
2023-09-08T06:50:00,rvs,10.87
2023-09-08T06:51:00,rvs,10.89
2023-09-08T06:52:00,rvs,10.96
2023-09-08T06:53:00,rvs,11.01
2023-09-08T06:54:00,rvs,11.49
2023-09-08T06:55:00,rvs,12.06
2023-09-08T06:56:00,rvs,12.02
2023-09-08T06:57:00,rvs,11.99
2023-09-08T06:58:00,rvs,11.33
2023-09-08T06:59:00,rvs,13.83
2023-09-08T07:00:00,rvs,14.23
2023-09-08T07:01:00,rvs,14.15
2023-09-08T07:02:00,rvs,14.92
2023-09-08T07:03:00,rvs,16.03
2023-09-08T07:04:00,rvs,16.18
2023-09-08T07:05:00,rvs,15.84
2023-09-08T07:06:00,rvs,15.60
2023-09-08T07:07:00,rvs,15.73
2023-09-08T07:08:00,rvs,15.71
2023-09-08T07:09:00,rvs,15.69
2023-09-08T07:10:00,rvs,11.31
2023-09-08T07:11:00,rvs,11.92
2023-09-08T07:12:00,rvs,12.43
2023-09-08T07:13:00,rvs,12.02
2023-09-08T07:14:00,rvs,11.96
2023-09-08T07:15:00,rvs,14.82
2023-09-08T07:16:00,rvs,14.06
2023-09-08T07:17:00,rvs,14.29
2023-09-08T07:18:00,rvs,14.76
2023-09-08T07:19:00,rvs,15.30
2023-09-08T07:20:00,rvs,15.39
2023-09-08T07:21:00,rvs,14.96
2023-09-08T07:22:00,rvs,10.92
2023-09-08T07:23:00,rvs,11.42
2023-09-08T07:24:00,rvs,13.28
2023-09-08T07:25:00,rvs,14.00
2023-09-08T07:26:00,rvs,14.10
2023-09-08T07:27:00,rvs,14.55
2023-09-08T07:28:00,rvs,15.52
2023-09-08T07:29:00,rvs,14.75
2023-09-08T07:30:00,rvs,15.63
2023-09-08T07:31:00,rvs,15.98
2023-09-08T07:32:00,rvs,17.24
2023-09-08T07:33:00,rvs,15.35
2023-09-08T07:34:00,rvs,18.25
2023-09-08T07:35:00,rvs,19.35
2023-09-08T07:36:00,rvs,16.62
2023-09-08T07:37:00,rvs,15.42
2023-09-08T07:38:00,rvs,14.75
2023-09-08T07:39:00,rvs,14.81
2023-09-08T07:40:00,rvs,14.80
2023-09-08T07:41:00,rvs,14.97
2023-09-08T07:42:00,rvs,15.21
2023-09-08T07:43:00,rvs,11.10
2023-09-08T07:44:00,rvs,11.04
2023-09-08T07:45:00,rvs,26.52
2023-09-08T07:46:00,rvs,26.28
2023-09-08T07:47:00,rvs,26.61
2023-09-08T07:48:00,rvs,25.83
2023-09-08T07:49:00,rvs,13.94
2023-09-08T07:50:00,rvs,11.58
2023-09-08T07:51:00,rvs,11.55
2023-09-08T07:52:00,rvs,11.53
2023-09-08T07:53:00,rvs,11.54
2023-09-08T07:54:00,rvs,13.61
2023-09-08T07:55:00,rvs,13.43
2023-09-08T07:56:00,rvs,15.95
2023-09-08T07:57:00,rvs,16.43
2023-09-08T07:58:00,rvs,17.89
2023-09-08T07:59:00,rvs,18.71
2023-09-08T08:00:00,rvs,23.99
2023-09-08T08:01:00,rvs,23.37
2023-09-08T08:02:00,rvs,24.90
2023-09-08T08:03:00,rvs,45.77
2023-09-08T08:04:00,rvs,28.83
2023-09-08T08:05:00,rvs,27.79
2023-09-08T08:06:00,rvs,28.14
2023-09-08T08:07:00,rvs,28.61
2023-09-08T08:08:00,rvs,25.12
2023-09-08T08:09:00,rvs,25.30
2023-09-08T08:10:00,rvs,25.07
2023-09-08T08:11:00,rvs,25.39
2023-09-08T08:12:00,rvs,19.38
2023-09-08T08:13:00,rvs,19.67
2023-09-08T08:14:00,rvs,19.38
2023-09-08T08:15:00,rvs,10.82
2023-09-08T08:16:00,rvs,10.75
2023-09-08T08:17:00,rvs,11.34
2023-09-08T08:18:00,rvs,11.26
2023-09-08T08:19:00,rvs,11.27
2023-09-08T08:20:00,rvs,11.29
2023-09-08T08:21:00,rvs,11.25
2023-09-08T08:22:00,rvs,11.27
2023-09-08T08:23:00,rvs,11.26
2023-09-08T08:24:00,rvs,13.53
2023-09-08T08:25:00,rvs,14.22
2023-09-08T08:26:00,rvs,14.48
2023-09-08T08:27:00,rvs,14.96
2023-09-08T08:28:00,rvs,15.86
2023-09-08T08:29:00,rvs,15.84
2023-09-08T08:30:00,rvs,15.84
2023-09-08T08:31:00,rvs,15.42
2023-09-08T08:32:00,rvs,15.57
2023-09-08T08:33:00,rvs,15.70
2023-09-08T08:34:00,rvs,16.03
2023-09-08T08:35:00,rvs,15.29
2023-09-08T08:36:00,rvs,15.25
2023-09-08T08:37:00,rvs,15.24
2023-09-08T08:38:00,rvs,14.97
2023-09-08T08:39:00,rvs,15.27
2023-09-08T08:40:00,rvs,15.26
2023-09-08T08:41:00,rvs,15.33
2023-09-08T08:42:00,rvs,15.35
2023-09-08T08:43:00,rvs,15.69
2023-09-08T08:44:00,rvs,11.15
2023-09-08T08:45:00,rvs,10.95
2023-09-08T08:46:00,rvs,11.10
2023-09-08T08:47:00,rvs,29.74
2023-09-08T08:48:00,rvs,11.28
2023-09-08T08:49:00,rvs,11.40
2023-09-08T08:50:00,rvs,11.45
2023-09-08T08:51:00,rvs,11.34
2023-09-08T08:52:00,rvs,11.24
2023-09-08T08:53:00,rvs,11.13
2023-09-08T08:54:00,rvs,11.12
2023-09-08T08:55:00,rvs,11.04
2023-09-08T08:56:00,rvs,10.64
2023-09-08T08:57:00,rvs,10.81
2023-09-08T08:58:00,rvs,10.77
2023-09-08T08:59:00,rvs,10.84
2023-09-08T09:00:00,rvs,11.37
2023-09-08T09:01:00,rvs,11.50
2023-09-08T09:02:00,rvs,11.51
2023-09-08T09:03:00,rvs,10.98
2023-09-08T09:04:00,rvs,11.20
2023-09-08T09:05:00,rvs,13.44
2023-09-08T09:06:00,rvs,13.63
2023-09-08T09:07:00,rvs,14.05
2023-09-08T09:08:00,rvs,16.65
2023-09-08T09:09:00,rvs,18.86
2023-09-08T09:10:00,rvs,21.62
2023-09-08T09:11:00,rvs,21.79
2023-09-08T09:12:00,rvs,22.17
2023-09-08T09:13:00,rvs,23.49
2023-09-08T09:14:00,rvs,23.37
2023-09-08T09:15:00,rvs,22.59
2023-09-08T09:16:00,rvs,23.04
2023-09-08T09:17:00,rvs,25.72
2023-09-08T09:18:00,rvs,26.57
2023-09-08T09:19:00,rvs,36.50
2023-09-08T09:20:00,rvs,20.72
2023-09-08T09:21:00,rvs,23.71
2023-09-08T09:22:00,rvs,27.84
2023-09-08T09:23:00,rvs,28.67
2023-09-08T09:24:00,rvs,30.40
2023-09-08T09:25:00,rvs,30.68
2023-09-08T09:26:00,rvs,30.95
2023-09-08T09:27:00,rvs,27.13
2023-09-08T09:28:00,rvs,25.36
2023-09-08T09:29:00,rvs,25.69
2023-09-08T09:30:00,rvs,25.92
2023-09-08T09:31:00,rvs,26.14
2023-09-08T09:32:00,rvs,26.52
2023-09-08T09:33:00,rvs,21.66
2023-09-08T09:34:00,rvs,24.33
2023-09-08T09:35:00,rvs,20.22
2023-09-08T09:36:00,rvs,21.08
2023-09-08T09:37:00,rvs,21.78
2023-09-08T09:38:00,rvs,22.25
2023-09-08T09:39:00,rvs,20.98
2023-09-08T09:40:00,rvs,21.54
2023-09-08T09:41:00,rvs,21.89
2023-09-08T09:42:00,rvs,21.92
2023-09-08T09:43:00,rvs,23.70
2023-09-08T09:44:00,rvs,24.06
2023-09-08T09:45:00,rvs,26.59
2023-09-08T09:46:00,rvs,18.19
2023-09-08T09:47:00,rvs,17.69
2023-09-08T09:48:00,rvs,14.96
2023-09-08T09:49:00,rvs,16.26
2023-09-08T09:50:00,rvs,15.77
2023-09-08T09:51:00,rvs,16.04
2023-09-08T09:52:00,rvs,16.61
2023-09-08T09:53:00,rvs,17.15
2023-09-08T09:54:00,rvs,18.07
2023-09-08T09:55:00,rvs,17.64
2023-09-08T09:56:00,rvs,16.68
2023-09-08T09:57:00,rvs,16.11
2023-09-08T09:58:00,rvs,15.82
2023-09-08T09:59:00,rvs,15.80
2023-09-08T10:00:00,rvs,19.24
2023-09-08T10:01:00,rvs,15.84
2023-09-08T10:02:00,rvs,16.24
2023-09-08T10:03:00,rvs,16.69
2023-09-08T10:04:00,rvs,16.74
2023-09-08T10:05:00,rvs,20.82
2023-09-08T10:06:00,rvs,19.89
2023-09-08T10:07:00,rvs,35.37
2023-09-08T10:08:00,rvs,35.26
2023-09-08T10:09:00,rvs,36.33
2023-09-08T10:10:00,rvs,35.11
2023-09-08T10:11:00,rvs,23.06
2023-09-08T10:12:00,rvs,20.75
2023-09-08T10:13:00,rvs,21.94
2023-09-08T10:14:00,rvs,21.34
2023-09-08T10:15:00,rvs,22.21
2023-09-08T10:16:00,rvs,23.70
2023-09-08T10:17:00,rvs,23.70
2023-09-08T10:18:00,rvs,23.68
2023-09-08T10:19:00,rvs,23.65
2023-09-08T10:20:00,rvs,26.52
2023-09-08T10:21:00,rvs,28.21
2023-09-08T10:22:00,rvs,26.83
2023-09-08T10:23:00,rvs,27.00
2023-09-08T10:24:00,rvs,27.76
2023-09-08T10:25:00,rvs,27.33
2023-09-08T10:26:00,rvs,23.92
2023-09-08T10:27:00,rvs,23.73
2023-09-08T10:28:00,rvs,25.28
2023-09-08T10:29:00,rvs,24.75
2023-09-08T10:30:00,rvs,27.45
2023-09-08T10:31:00,rvs,23.12
2023-09-08T10:32:00,rvs,26.90
2023-09-08T10:33:00,rvs,23.18
2023-09-08T10:34:00,rvs,43.94
2023-09-08T10:35:00,rvs,28.01
2023-09-08T10:36:00,rvs,32.32
2023-09-08T10:37:00,rvs,29.36
2023-09-08T10:38:00,rvs,30.89
2023-09-08T10:39:00,rvs,33.91
2023-09-08T10:40:00,rvs,28.91
2023-09-08T10:41:00,rvs,32.38
2023-09-08T10:42:00,rvs,30.64
2023-09-08T10:43:00,rvs,31.89
2023-09-08T10:44:00,rvs,28.58
2023-09-08T10:45:00,rvs,28.80
2023-09-08T10:46:00,rvs,26.65
2023-09-08T10:47:00,rvs,32.32
2023-09-08T10:48:00,rvs,28.46
2023-09-08T10:49:00,rvs,32.33
2023-09-08T10:50:00,rvs,28.86
2023-09-08T10:51:00,rvs,30.03
2023-09-08T10:52:00,rvs,29.57
2023-09-08T10:53:00,rvs,26.97
2023-09-08T10:54:00,rvs,23.29
2023-09-08T10:55:00,rvs,23.42
2023-09-08T10:56:00,rvs,23.17
2023-09-08T10:57:00,rvs,23.21
2023-09-08T10:58:00,rvs,23.84
2023-09-08T10:59:00,rvs,22.27
2023-09-08T11:00:00,rvs,40.06
2023-09-08T11:01:00,rvs,20.68
2023-09-08T11:02:00,rvs,21.24
2023-09-08T11:03:00,rvs,23.37
2023-09-08T11:04:00,rvs,21.07
2023-09-08T11:05:00,rvs,17.77
2023-09-08T11:06:00,rvs,19.53
2023-09-08T11:07:00,rvs,20.71
2023-09-08T11:08:00,rvs,22.33
2023-09-08T11:09:00,rvs,21.39
2023-09-08T11:10:00,rvs,20.75
2023-09-08T11:11:00,rvs,22.15
2023-09-08T11:12:00,rvs,22.53
2023-09-08T11:13:00,rvs,22.78
2023-09-08T11:14:00,rvs,23.39
2023-09-08T11:15:00,rvs,23.94
2023-09-08T11:16:00,rvs,23.44
2023-09-08T11:17:00,rvs,23.73
2023-09-08T11:18:00,rvs,24.42
2023-09-08T11:19:00,rvs,24.94
2023-09-08T11:20:00,rvs,39.04
2023-09-08T11:21:00,rvs,21.06
2023-09-08T11:22:00,rvs,22.02
2023-09-08T11:23:00,rvs,21.81
2023-09-08T11:24:00,rvs,21.82
2023-09-08T11:25:00,rvs,19.32
2023-09-08T11:26:00,rvs,21.20
2023-09-08T11:27:00,rvs,22.75
2023-09-08T11:28:00,rvs,22.68
2023-09-08T11:29:00,rvs,24.26
2023-09-08T11:30:00,rvs,24.17
2023-09-08T11:31:00,rvs,24.15
2023-09-08T11:32:00,rvs,24.54
2023-09-08T11:33:00,rvs,26.96
2023-09-08T11:34:00,rvs,29.53
2023-09-08T11:35:00,rvs,30.27
2023-09-08T11:36:00,rvs,31.14
2023-09-08T11:37:00,rvs,34.11
2023-09-08T11:38:00,rvs,36.29
2023-09-08T11:39:00,rvs,37.30
2023-09-08T11:40:00,rvs,38.52
2023-09-08T11:41:00,rvs,40.38
2023-09-08T11:42:00,rvs,41.19
2023-09-08T11:43:00,rvs,41.85
2023-09-08T11:44:00,rvs,41.35
2023-09-08T11:45:00,rvs,39.72
2023-09-08T11:46:00,rvs,39.54
2023-09-08T11:47:00,rvs,38.31
2023-09-08T11:48:00,rvs,32.65
2023-09-08T11:49:00,rvs,31.16
2023-09-08T11:50:00,rvs,30.25
2023-09-08T11:51:00,rvs,30.26
2023-09-08T11:52:00,rvs,30.15
2023-09-08T11:53:00,rvs,30.40
2023-09-08T11:54:00,rvs,27.15
2023-09-08T11:55:00,rvs,27.53
2023-09-08T11:56:00,rvs,30.43
2023-09-08T11:57:00,rvs,26.90
2023-09-08T11:58:00,rvs,26.96
2023-09-08T11:59:00,rvs,26.40
2023-09-08T12:00:00,rvs,26.26
2023-09-08T12:01:00,rvs,29.32
2023-09-08T12:02:00,rvs,29.97
2023-09-08T12:03:00,rvs,30.47
2023-09-08T12:04:00,rvs,35.00
2023-09-08T12:05:00,rvs,34.58
2023-09-08T12:06:00,rvs,34.57
2023-09-08T12:07:00,rvs,33.33
2023-09-08T12:08:00,rvs,33.43
2023-09-08T12:09:00,rvs,36.05
2023-09-08T12:10:00,rvs,36.29
2023-09-08T12:11:00,rvs,35.95
2023-09-08T12:12:00,rvs,35.98
2023-09-08T12:13:00,rvs,36.32
2023-09-08T12:14:00,rvs,32.87
2023-09-08T12:15:00,rvs,33.60
2023-09-08T12:16:00,rvs,33.31
2023-09-08T12:17:00,rvs,33.34
2023-09-08T12:18:00,rvs,29.61
2023-09-08T12:19:00,rvs,29.26
2023-09-08T12:20:00,rvs,29.04
2023-09-08T12:21:00,rvs,29.11
2023-09-08T12:22:00,rvs,28.98
2023-09-08T12:23:00,rvs,32.05
2023-09-08T12:24:00,rvs,33.83
2023-09-08T12:25:00,rvs,36.42
2023-09-08T12:26:00,rvs,38.76
2023-09-08T12:27:00,rvs,35.84
2023-09-08T12:28:00,rvs,37.36
2023-09-08T12:29:00,rvs,37.57
2023-09-08T12:30:00,rvs,37.66
2023-09-08T12:31:00,rvs,41.55
2023-09-08T12:32:00,rvs,43.21
2023-09-08T12:33:00,rvs,43.52
2023-09-08T12:34:00,rvs,43.69
2023-09-08T12:35:00,rvs,44.47
2023-09-08T12:36:00,rvs,45.08
2023-09-08T12:37:00,rvs,40.19
2023-09-08T12:38:00,rvs,34.50
2023-09-08T12:39:00,rvs,38.38
2023-09-08T12:40:00,rvs,39.40
2023-09-08T12:41:00,rvs,36.31
2023-09-08T12:42:00,rvs,36.19
2023-09-08T12:43:00,rvs,28.34
2023-09-08T12:44:00,rvs,26.83
2023-09-08T12:45:00,rvs,33.19
2023-09-08T12:46:00,rvs,33.17
2023-09-08T12:47:00,rvs,33.56
2023-09-08T12:48:00,rvs,30.46
2023-09-08T12:49:00,rvs,48.45
2023-09-08T12:50:00,rvs,29.94
2023-09-08T12:51:00,rvs,30.33
2023-09-08T12:52:00,rvs,34.92
2023-09-08T12:53:00,rvs,37.68
2023-09-08T12:54:00,rvs,32.13
2023-09-08T12:55:00,rvs,33.07
2023-09-08T12:56:00,rvs,28.69
2023-09-08T12:57:00,rvs,33.52
2023-09-08T12:58:00,rvs,37.86
2023-09-08T12:59:00,rvs,36.46
2023-09-08T13:00:00,rvs,31.68
2023-09-08T13:01:00,rvs,31.55
2023-09-08T13:02:00,rvs,30.97
2023-09-08T13:03:00,rvs,33.00
2023-09-08T13:04:00,rvs,29.06
2023-09-08T13:05:00,rvs,36.75
2023-09-08T13:06:00,rvs,33.42
2023-09-08T13:07:00,rvs,37.26
2023-09-08T13:08:00,rvs,34.40
2023-09-08T13:09:00,rvs,34.05
2023-09-08T13:10:00,rvs,31.44
2023-09-08T13:11:00,rvs,30.67
2023-09-08T13:12:00,rvs,29.09
2023-09-08T13:13:00,rvs,32.78
2023-09-08T13:14:00,rvs,31.09
2023-09-08T13:15:00,rvs,32.70
2023-09-08T13:16:00,rvs,32.72
2023-09-08T13:17:00,rvs,29.84
2023-09-08T13:18:00,rvs,35.29